CAPE
0 0 0 0 0 0 0 0 0 0 0 0 0 3 1 0 7 0 0 23 115 290 554 679 915 1106 1184 1194 1169 1190 1092 1088 1027 996 968 965 949 884 843 760 677 621 640 717
0 0 0 0 0 0 0 0 0 0 0 0 16 141 87 208 157 111 218 477 379 339 583 667 829 969 1074 1226 1293 1264 1192 1166 1213 1145 963 890 928 944 887 757 774 890 879 962
0 0 0 0 0 0 0 0 0 0 0 0 182 336 380 571 685 625 836 999 1074 1203 1080 726 797 967 1036 1114 1277 1274 1300 1345 1344 1288 1116 993 1006 1046 994 750 738 805 943 1059
0 0 0 0 0 0 0 0 1 7 49 121 423 461 663 650 887 970 1140 1383 1853 2337 2466 1867 869 917 1167 1318 1278 1288 1355 1413 1507 1431 1313 1282 1172 1179 1227 1097 831 677 658 849
0 0 0 0 0 0 0 0 2 282 518 629 479 517 525 354 368 409 428 413 732 1339 2647 2900 1632 1113 1219 1467 1562 1537 1490 1498 1479 1531 1496 1481 1334 1311 1347 1345 1241 1103 1076 1016
0 0 0 0 0 0 0 0 23 31 8 88 279 706 487 105 179 180 171 84 118 275 430 848 2321 1342 1502 1719 1866 1841 1847 1964 1859 1647 1654 1632 1528 1554 1628 1566 1527 1546 1441 1381
0 0 0 0 0 0 17 40 0 0 4 113 107 100 33 13 135 102 129 150 80 183 215 269 153 1129 1761 1584 1663 1999 2134 2153 2139 2015 1791 1765 1789 1787 1733 1700 1650 1684 1657 1729
4 18 13 0 0 72 1 0 0 0 0 0 30 31 2 10 54 38 56 29 3 0 82 276 178 39 36 485 547 286 647 1397 2082 2314 2163 1940 1878 1792 1630 1664 1722 1789 1811 1707
0 1 0 0 0 0 0 0 0 0 0 0 2 24 116 124 63 2 0 0 0 0 0 4 49 8 0 26 287 8 0 0 1936 2146 2184 2140 2087 2118 1956 1926 1970 2091 1640 1440
0 0 0 0 0 0 0 0 0 0 0 0 0 0 0 0 7 33 3 0 0 0 0 0 15 0 42 247 503 451 511 1166 1076 1541 1561 1495 1780 2063 2161 1837 1585 1051 688 300
0 0 0 0 0 0 0 0 0 0 0 0 0 0 0 0 0 0 0 0 0 0 0 0 0 0 37 53 65 23 125 612 734 720 585 450 504 644 974 662 437 77 7 0
1 0 0 0 0 0 0 0 0 0 0 0 0 0 0 0 0 0 0 0 0 0 0 0 0 0 0 285 414 343 245 494 419 351 135 35 137 91 0 0 0 0 0 7
12 8 3 0 0 0 0 0 0 0 0 0 0 0 0 0 0 0 0 0 0 0 0 0 0 0 0 0 7 113 219 656 688 298 185 116 81 48 1 0 0 0 0 0
0 0 0 0 0 0 0 0 0 0 0 0 0 0 0 0 0 0 0 0 0 0 0 0 0 0 0 0 0 0 7 25 196 277 228 46 4 199 78 0 0 0 0 0
0 5 5 2 0 0 1 1 2 5 4 2 0 1 0 0 0 0 0 0 0 0 0 0 0 0 0 0 0 0 0 0 21 56 62 47 69 105 46 5 18 0 0 0
0 2 2 1 0 2 3 0 0 1 10 5 3 2 4 1 0 0 0 0 0 0 0 0 0 0 0 0 0 0 0 0 33 107 117 29 14 28 53 0 0 0 0 0
4 10 8 14 15 3 16 18 19 10 1 4 3 4 3 2 1 0 0 0 0 0 0 0 0 0 22 9 0 0 17 114 15 157 220 129 52 32 50 1 0 0 0 0
14 4 4 3 2 1 3 4 4 2 3 0 3 5 3 6 3 0 0 0 0 0 0 0 0 0 31 28 27 52 146 366 159 195 233 267 117 20 1 2 0 0 0 0
3 5 4 6 7 6 5 3 4 3 1 2 6 1 0 1 2 4 6 5 2 0 0 15 0 0 17 30 40 247 763 584 285 329 371 392 64 9 0 0 0 0 0 0
2 2 3 4 2 3 2 3 4 2 2 2 1 2 1 0 0 0 1 2 2 0 15 25 0 0 41 128 115 364 798 710 575 465 426 413 287 34 2 1 0 1 0 0
0 0 3 3 2 3 2 3 4 3 2 1 2 4 2 3 2 1 2 3 0 1 0 0 2 9 37 71 198 393 1119 1026 713 632 410 362 633 341 48 4 0 0 0 0
0 0 1 3 2 2 2 3 2 4 2 2 2 2 4 3 26 47 43 15 20 23 0 13 20 8 11 86 245 517 753 800 737 779 590 424 649 404 251 40 0 0 0 0
0 0 0 0 1 3 2 2 3 1 5 2 3 3 4 3 2 2 13 14 22 31 14 106 247 154 104 131 428 797 969 963 1063 909 662 481 657 552 221 29 0 0 0 0
0 0 0 0 0 0 0 3 3 2 7 3 3 3 3 3 3 5 2 2 2 1 2 70 180 40 17 349 626 803 795 925 818 810 686 368 494 355 227 152 6 1 22 0
0 0 0 0 0 0 0 0 0 1 2 3 3 3 3 2 3 3 4 4 2 3 3 2 1 3 13 425 467 524 723 1006 1075 871 745 414 307 222 111 15 0 0 11 15
0 0 0 0 0 0 0 0 0 0 2 3 2 3 4 2 3 2 2 6 6 6 5 5 3 4 3 10 102 168 253 462 690 680 573 508 142 17 22 1 2 2 1 4
0 0 0 0 0 0 0 0 0 0 0 1 0 1 3 2 2 2 2 2 2 3 3 4 5 5 6 6 6 6 6 7 4 4 7 10 1 1 1 2 3 3 3 3
CIN
-0 -0 -0 -0 -0 -0 -0 -0 -0 -0 -0 -0 -0 -108 -131 -8 -99 -0 -0 -189 -247 -291 -344 -449 -464 -508 -516 -455 -409 -399 -414 -359 -286 -279 -259 -219 -190 -175 -156 -150 -137 -112 -95 -79
-0 -0 -0 -0 -0 -0 -0 -0 -0 -0 -0 -0 -214 -218 -198 -219 -175 -133 -135 -180 -205 -259 -354 -385 -420 -463 -493 -454 -437 -421 -420 -365 -325 -307 -279 -246 -214 -181 -174 -168 -153 -121 -118 -91
-0 -0 -0 -0 -0 -0 -0 -0 -0 -0 -0 -0 -152 -165 -227 -268 -321 -314 -318 -308 -289 -279 -285 -330 -412 -477 -467 -467 -469 -438 -402 -378 -337 -303 -283 -252 -215 -189 -180 -190 -174 -172 -146 -116
-0 -0 -0 -0 -0 -0 -0 -0 -19 -84 -160 -221 -214 -302 -341 -379 -328 -338 -369 -378 -378 -361 -361 -374 -454 -455 -465 -494 -478 -430 -386 -360 -328 -300 -278 -239 -214 -186 -165 -176 -200 -208 -209 -181
-0 -0 -0 -0 -0 -0 -0 -0 -43 -156 -155 -186 -232 -226 -277 -424 -458 -441 -442 -455 -457 -422 -308 -319 -466 -504 -484 -427 -397 -379 -350 -359 -343 -309 -281 -245 -222 -205 -182 -171 -184 -200 -204 -194
-0 -0 -0 -0 -0 -0 -0 -0 -178 -198 -242 -226 -170 -30 -98 -347 -367 -399 -432 -536 -546 -495 -435 -418 -327 -461 -410 -342 -272 -255 -214 -203 -236 -269 -244 -233 -226 -207 -197 -190 -160 -150 -170 -175
-0 -0 -0 -0 -0 -0 -35 -47 -0 -0 -129 -166 -125 -123 -167 -78 -239 -284 -266 -300 -383 -380 -369 -372 -464 -399 -282 -295 -227 -129 -69 -112 -136 -173 -206 -189 -166 -171 -177 -176 -164 -150 -142 -122
-44 -23 -7 -0 -0 -48 -10 -0 -0 -0 -0 -0 -179 -178 -238 -215 -173 -175 -147 -210 -236 -0 -287 -303 -383 -323 -432 -364 -414 -278 -269 -150 -94 -124 -148 -163 -166 -159 -177 -162 -138 -133 -133 -128
-0 -1 -0 -0 -0 -0 -0 -0 -0 -0 -0 -0 -193 -151 -134 -173 -198 -96 -2 -0 -0 -0 -0 -332 -357 -405 -0 -331 -239 -55 -0 -17 -5 -127 -156 -137 -131 -129 -145 -134 -107 -77 -112 -133
-0 -0 -0 -0 -0 -0 -0 -0 -0 -0 -0 -0 -0 -0 -0 -0 -173 -169 -53 -0 -0 -0 -0 -0 -271 -0 -294 -246 -167 -151 -118 -63 -130 -152 -203 -203 -139 -132 -117 -140 -123 -180 -189 -201
-0 -0 -0 -0 -0 -0 -0 -0 -0 -0 -0 -0 -0 -0 -0 -0 -0 -0 -0 -0 -0 -0 -0 -0 -0 -0 -197 -210 -188 -252 -242 -120 -184 -213 -331 -357 -331 -283 -195 -270 -320 -402 -271 -0
-1 -0 -0 -0 -0 -0 -0 -0 -0 -0 -0 -0 -0 -0 -0 -0 -0 -0 -0 -0 -0 -0 -0 -0 -0 -0 -0 -126 -118 -101 -134 -174 -201 -218 -376 -467 -401 -401 -0 -0 -0 -0 -0 -104
-1 -17 -9 -0 -0 -0 -0 -0 -0 -0 -0 -0 -0 -0 -0 -0 -0 -0 -0 -0 -0 -0 -0 -0 -0 -0 -0 -0 -73 -96 -66 -52 -76 -148 -241 -310 -342 -422 -14 -0 -0 -0 -0 -0
-0 -7 -0 -0 -0 -0 -0 -0 -0 -0 -0 -0 -0 -0 -0 -0 -0 -0 -0 -0 -0 -0 -0 -0 -0 -0 -0 -0 -0 -0 -88 -136 -112 -114 -154 -273 -277 -246 -295 -0 -0 -0 -0 -0
-0 -11 -1 -1 -0 -0 -0 -0 -0 -5 -0 -0 -28 -0 -0 -0 -0 -0 -0 -0 -0 -0 -0 -0 -0 -0 -0 -0 -0 -0 -0 -0 -125 -154 -163 -219 -261 -273 -279 -232 -306 -0 -0 -0
-0 -0 -23 -24 -0 -10 -7 -0 -5 -3 -22 -0 -1 -0 -0 -0 -0 -0 -0 -0 -0 -0 -0 -0 -0 -0 -0 -0 -0 -0 -0 -0 -71 -113 -133 -202 -302 -264 -182 -0 -0 -0 -0 -0
-0 -0 -0 -7 -0 -0 -0 -1 -0 -7 -8 -0 -51 -0 -0 -0 -0 -0 -0 -0 -0 -0 -0 -0 -0 -0 -97 -115 -0 -0 -48 -50 -155 -111 -106 -127 -162 -186 -166 -0 -0 -0 -0 -0
-1 -0 -0 -0 -0 -0 -0 -0 -0 -0 -17 -0 -37 -38 -0 -0 -0 -0 -0 -0 -0 -0 -0 -0 -0 -0 -100 -91 -93 -144 -82 -68 -125 -114 -104 -100 -130 -107 -136 -93 -0 -0 -0 -0
-0 -0 -0 -0 -0 -0 -0 -0 -0 -0 -0 -0 -0 -0 -0 -0 -3 -0 -0 -0 -0 -0 -0 -110 -0 -0 -87 -82 -123 -83 -57 -90 -132 -116 -102 -73 -170 -110 -0 -0 -0 -0 -0 -0
-0 -0 -0 -0 -0 -0 -0 -0 -0 -0 -0 -0 -0 -0 -0 -0 -0 -0 -0 -0 -0 -0 -107 -107 -0 -0 -67 -63 -98 -91 -76 -88 -94 -101 -109 -81 -75 -192 -0 -0 -0 -1 -0 -0
-0 -0 -0 -0 -0 -0 -0 -0 -0 -0 -0 -0 -0 -0 -0 -0 -1 -0 -0 -0 -0 -20 -0 -0 -196 -177 -96 -73 -70 -87 -24 -28 -56 -63 -105 -100 -27 -45 -137 -0 -0 -1 -0 -0
-0 -0 -0 -0 -0 -0 -0 -0 -0 -0 -0 -0 -0 -0 -0 -15 -10 -1 -10 -37 -78 -78 -5 -128 -144 -170 -67 -91 -64 -46 -42 -10 -22 -53 -78 -86 -27 -48 -49 -115 -0 -0 -0 -0
-0 -0 -0 -0 -0 -0 -0 -0 -0 -0 -0 -0 -0 -0 -0 -0 -0 -13 -30 -25 -37 -73 -101 -79 -70 -110 -111 -106 -68 -48 -37 -47 -39 -47 -73 -87 -34 -21 -46 -131 -0 -0 -0 -0
-0 -0 -0 -0 -0 -0 -0 -0 -0 -0 -0 -0 -0 -0 -0 -0 -0 -0 -0 -0 -0 -0 -0 -93 -86 -171 -170 -67 -53 -60 -74 -50 -51 -37 -45 -84 -36 -29 -23 -47 -78 -6 -45 -0
-0 -0 -0 -0 -0 -0 -0 -0 -0 -0 -0 -0 -0 -0 -0 -0 -0 -0 -0 -0 -0 -0 -0 -0 -0 -173 -157 -33 -57 -67 -49 -17 -5 -13 -18 -41 -33 -25 -20 -47 -0 -0 -39 -63
-0 -0 -0 -0 -0 -0 -0 -0 -0 -0 -0 -0 -0 -0 -0 -0 -0 -0 -0 -0 -0 -0 -0 -0 -0 -0 -0 -63 -26 -17 -6 -26 -2 -2 -1 -1 -30 -55 -40 -0 -0 -0 -0 -8
-0 -0 -0 -0 -0 -0 -0 -0 -0 -0 -0 -0 -0 -0 -0 -0 -0 -0 -0 -0 -0 -0 -0 -0 -0 -0 -0 -0 -0 -0 -0 -0 -0 -0 -28 -20 -0 -0 -0 -0 -0 -0 -0 -0
Wind_Speed
31 34 33 33 31 30 27 31 31 31 25 31 24 24 25 23 21 20 19 17 20 17 13 14 14 10 7 9 14 15 16 18 16 11 11 10 9 10 11 9 11 15 17 18
35 32 33 37 35 30 28 27 30 31 30 27 23 23 24 25 23 21 19 19 20 20 19 13 5 3 1 5 9 10 10 14 14 10 8 9 7 8 9 8 7 8 12 15
39 34 39 42 36 33 28 25 25 28 27 26 24 22 22 24 22 22 22 21 22 22 22 16 13 7 1 5 8 10 8 6 8 8 7 8 8 6 6 7 6 10 15 15
39 36 43 36 28 31 33 31 28 28 29 28 24 20 18 18 19 19 20 21 21 20 19 19 18 14 8 4 2 3 3 3 4 7 7 6 6 5 4 4 6 8 11 12
34 36 38 35 26 27 29 29 26 27 22 18 19 18 19 17 16 17 18 18 17 17 18 19 18 16 12 12 10 9 6 3 4 6 7 7 7 7 6 5 5 6 7 8
25 32 35 28 31 29 26 30 24 25 27 28 23 23 23 21 15 14 16 19 20 19 18 21 22 17 14 16 18 16 18 17 9 5 7 9 9 8 9 8 8 10 9 7
22 26 27 28 30 24 31 31 27 26 25 25 25 26 26 26 23 22 25 25 26 25 22 19 18 17 16 16 19 23 25 22 19 11 9 12 16 15 15 16 16 15 15 14
21 22 24 28 24 25 25 25 27 27 27 28 27 23 20 21 21 21 21 21 24 26 27 24 24 19 19 19 15 20 20 24 30 25 18 17 16 18 18 19 20 19 18 17
22 24 26 24 23 22 24 27 28 28 29 29 28 27 29 31 29 27 25 25 24 25 25 26 25 23 25 23 23 26 26 27 32 28 19 21 21 20 20 20 22 25 24 23
30 23 25 25 29 25 30 31 33 32 32 30 31 30 31 31 31 31 29 29 26 27 27 28 26 24 20 19 19 19 16 18 30 19 20 21 21 19 20 20 20 21 24 30
36 37 34 35 27 35 39 38 38 36 35 36 36 36 34 34 33 32 31 30 29 29 30 32 29 27 26 26 25 24 22 21 24 22 21 22 23 21 19 19 16 19 25 27
30 36 36 40 41 44 46 47 45 44 43 40 39 42 41 40 37 35 35 33 32 29 29 28 29 30 29 26 24 24 26 26 24 26 25 26 24 23 20 16 16 16 15 12
11 19 29 37 41 46 47 49 46 45 44 48 48 44 44 44 43 40 39 37 36 36 34 31 30 30 29 27 25 25 26 25 25 26 26 27 23 21 21 23 22 19 16 10
15 25 20 16 33 42 43 42 46 49 49 47 47 48 46 46 45 45 43 40 40 39 38 37 35 33 31 30 31 30 30 28 27 30 29 28 23 20 23 25 18 12 12 6
14 10 18 25 27 30 36 24 35 35 47 43 40 43 42 43 44 45 43 42 40 38 36 34 36 37 34 32 32 35 34 33 30 27 27 26 24 23 23 18 15 11 6 5
18 18 18 20 23 26 21 16 15 15 19 15 28 36 38 37 38 40 41 38 36 36 34 32 33 34 34 33 34 33 34 34 32 29 28 25 24 22 18 17 15 12 10 7
18 21 30 10 16 21 14 11 21 24 16 12 12 26 32 35 35 36 39 36 34 34 34 34 34 32 32 33 35 37 36 33 32 29 28 25 23 21 21 18 14 12 12 9
27 35 35 15 15 25 35 39 40 39 20 9 8 13 23 33 37 36 33 33 32 32 31 32 33 33 32 33 35 36 35 32 30 28 28 25 23 21 21 21 18 14 12 9
18 23 22 23 29 21 14 21 32 35 33 18 6 7 8 9 22 36 34 28 25 35 37 33 33 32 33 33 31 29 29 28 27 27 28 27 24 21 21 21 20 18 15 15
34 41 43 41 35 23 23 19 14 9 9 11 8 27 9 9 16 20 28 32 31 36 34 31 29 26 28 28 25 25 24 25 25 26 25 25 25 23 21 20 20 18 16 16
36 37 41 22 17 21 23 31 32 31 30 6 3 6 19 28 26 24 5 14 27 27 31 24 18 20 22 23 21 21 24 25 25 25 24 24 25 25 24 20 19 18 19 17
20 20 14 15 16 16 14 16 28 35 37 31 25 24 5 10 28 4 4 7 10 18 19 21 21 19 22 22 24 25 25 25 24 24 23 23 25 25 25 23 21 21 20 21
11 12 14 15 14 12 17 27 26 27 27 15 18 18 21 14 17 16 7 9 8 26 30 29 26 14 15 20 20 21 26 27 28 27 26 25 28 29 29 28 23 24 22 25
15 11 16 12 15 15 20 27 30 14 19 21 17 18 11 10 9 21 22 22 18 22 24 26 28 30 11 18 15 23 31 33 34 34 33 31 31 31 32 24 24 18 25 29
33 16 13 11 15 23 19 19 20 19 18 23 27 21 19 17 29 17 23 22 20 16 17 19 17 11 11 20 25 30 31 32 32 30 32 31 29 28 24 22 22 15 18 26
33 34 37 35 21 22 26 44 46 46 28 26 25 25 34 32 30 32 30 27 25 19 17 18 16 14 13 14 15 18 21 26 31 33 34 33 25 23 17 13 13 12 14 18
30 32 32 35 32 31 37 40 43 45 47 42 21 24 31 32 33 38 32 35 37 27 17 16 20 16 14 12 11 12 13 14 14 14 16 18 17 14 11 11 10 7 9 8
Wind_Direction
295 292 292 291 291 289 285 283 281 287 287 281 292 288 283 288 291 292 297 301 276 297 307 282 158 153 152 157 163 161 166 173 173 164 161 161 163 163 163 166 172 175 179 183
294 295 292 286 286 287 286 286 284 285 285 284 286 290 286 285 286 289 293 296 296 290 293 302 316 123 123 148 156 158 164 175 175 171 170 167 167 165 166 168 175 178 182 183
290 293 291 283 283 280 282 286 286 282 286 286 286 289 290 286 288 287 291 294 296 296 289 298 299 316 168 146 148 159 165 175 187 188 188 181 171 172 176 174 175 176 179 182
289 291 282 289 293 287 281 281 284 285 286 286 285 290 298 301 295 299 302 304 303 298 302 299 292 301 313 294 171 174 178 193 208 209 227 219 200 197 205 202 189 182 181 183
286 284 285 287 295 292 286 282 289 283 287 291 289 290 291 298 305 307 310 317 320 324 318 311 304 301 306 300 299 299 293 259 216 210 226 233 223 220 239 234 209 203 195 190
296 288 285 292 294 294 292 278 297 294 287 283 285 282 285 291 302 311 314 315 313 322 328 327 315 311 307 302 299 303 299 298 301 264 244 252 248 245 257 261 270 282 276 266
301 295 294 302 302 302 274 278 297 296 296 297 290 286 282 284 290 297 295 298 298 303 313 323 325 325 313 310 305 301 297 297 297 301 279 274 276 273 273 275 277 278 282 288
311 303 297 313 306 291 296 300 301 299 298 294 294 294 296 299 300 302 301 302 301 300 298 300 299 308 307 308 314 300 300 293 284 289 291 287 280 277 275 275 278 280 282 288
312 306 312 313 309 306 308 303 301 299 299 296 294 295 292 288 292 293 293 297 298 302 302 303 303 304 296 301 304 310 294 298 264 286 298 289 285 281 279 277 278 281 283 286
309 313 313 309 305 299 298 298 297 295 296 298 293 296 294 293 291 289 290 289 292 295 298 296 301 305 307 306 302 298 305 313 287 306 299 295 290 287 284 281 282 285 289 289
277 289 296 294 304 296 293 295 294 294 293 290 290 289 292 292 292 291 291 293 292 291 289 290 294 296 299 298 303 305 301 288 293 298 300 297 294 296 290 289 283 286 290 292
265 295 299 281 288 288 285 284 286 287 286 287 287 285 285 285 288 290 289 290 290 291 292 294 292 291 294 299 299 298 293 286 291 291 291 292 293 293 300 300 296 294 299 295
256 260 263 269 268 281 276 276 284 285 285 281 281 284 281 280 281 284 285 286 285 284 287 290 292 290 292 293 295 296 292 291 288 287 292 288 289 289 289 295 296 294 295 279
274 266 262 264 267 281 275 267 274 275 281 284 283 281 281 280 280 279 279 282 283 283 282 283 284 286 288 290 289 290 291 291 293 289 287 285 286 285 289 287 286 290 297 310
282 301 267 263 264 263 265 254 260 254 272 288 289 283 281 281 280 279 279 279 281 282 280 281 280 280 283 285 286 285 285 286 287 289 289 287 287 283 282 283 285 288 294 308
281 274 270 261 272 268 255 254 260 264 251 274 300 292 283 284 285 283 280 278 278 278 279 280 280 280 283 284 282 285 284 282 282 282 283 287 285 282 274 271 271 269 268 258
286 289 287 318 290 273 265 275 329 263 266 267 264 302 292 286 288 285 281 280 278 277 277 278 280 282 285 285 283 282 279 281 276 276 276 280 280 276 271 268 262 258 257 254
9 330 352 343 293 294 306 306 312 297 323 295 280 236 292 289 284 286 289 286 280 277 277 278 278 280 284 287 286 282 275 275 272 269 270 272 274 273 268 266 264 258 247 238
307 307 304 302 331 346 288 276 283 292 306 311 285 280 260 274 300 283 286 291 287 275 272 278 277 278 281 285 286 283 276 271 269 268 268 267 269 272 268 264 260 256 249 251
331 345 343 357 6 306 303 297 279 258 251 242 246 260 230 235 308 307 295 286 284 277 280 282 281 280 281 286 286 282 277 274 270 268 266 265 265 268 269 267 259 253 244 248
339 338 350 332 325 324 323 333 337 334 322 2 207 216 221 246 235 226 253 304 296 293 282 287 282 278 281 284 286 284 276 273 269 267 265 266 265 267 267 268 258 253 251 251
333 349 5 353 351 343 344 331 333 346 352 339 330 333 323 213 287 195 253 253 279 307 306 294 284 279 280 278 278 277 276 270 268 266 267 268 265 264 262 263 259 257 259 260
31 24 29 18 5 9 347 342 336 334 335 323 318 316 312 266 287 344 185 12 183 218 238 267 275 292 288 281 280 279 271 266 263 263 264 266 264 259 258 257 261 262 263 261
333 360 345 25 38 32 355 353 354 19 343 343 334 327 312 300 273 314 309 322 299 225 267 266 252 231 300 281 278 268 253 249 246 248 254 259 260 259 253 262 263 267 258 255
359 3 44 23 7 0 9 53 53 35 18 357 356 347 342 333 1 325 352 357 351 340 343 325 316 324 303 273 258 242 236 240 245 256 249 256 260 259 254 265 273 270 263 250
11 12 18 44 63 61 59 36 32 24 16 11 9 4 7 4 9 17 23 11 2 348 346 341 334 326 312 296 288 279 271 261 241 223 237 245 262 263 261 274 284 266 251 254
18 21 40 38 54 58 48 45 35 32 39 50 13 8 13 18 20 26 21 23 28 11 351 354 6 351 339 319 310 305 307 306 307 293 275 266 267 267 266 272 272 282 270 274